Regional Weather Roundup
Issued by NWS Northern Indiana

Home | Current Version | Previous Version | Graphics & Text | Print | Product List | Glossary On
Versions: 1 2 3 4 5 6 7 8 9 10 11 12 13 14 15 16 17 18 19 20 21 22 23 24 25 26 27 28 29 30 31 32 33 34 35 36 37 38 39 40 41 42 43 44 45 46 47 48 49 50
000
ASUS43 KIWX 240210
RWRIWX

KIWX WEATHER ROUNDUP
NATIONAL WEATHER SERVICE NORTHERN INDIANA
1000 PM EDT SUN APR 23 2017

NOTE: "FAIR" INDICATES FEW OR NO CLOUDS BELOW 12,000 FEET WITH NO
SIGNIFICANT WEATHER AND/OR OBSTRUCTIONS TO VISIBILITY.

* THESE STATIONS ARE NOT UNDER NWS QUALITY CONTROL. THEY ALSO MAY NOT
  REPORT WEATHER SUCH AS PRECIPITATION OR FOG.

INZ001>027-240300-
NORTHERN INDIANA

CITY           SKY/WX    TMP DP  RH WIND       PRES   REMARKS
GARY*          PTCLDY    52  37  58 CALM      30.06S
VALPARAISO     CLEAR     54  28  36 N7        30.05S
MICHIGAN CITY* CLEAR     46  30  53 CALM      30.07R
LAPORTE*       CLEAR     52  30  43 N9        30.05S
KNOX*          CLEAR     50   5  16 N5        30.04R
SOUTH BEND     CLEAR     49  34  56 N9        30.06S
GOSHEN         CLEAR     55  31  39 CALM      30.04R
MONTICELLO*    CLEAR     57  37  46 CALM      30.03R
LOGANSPORT*    CLEAR     57  32  38 CALM      30.05R
ROCHESTER*     CLEAR     57  34  41 CALM      30.05R
WARSAW*        CLEAR     52  34  50 CALM      30.04S
ANGOLA*        CLEAR     54  43  66 CALM      30.05R
FORT WAYNE     CLEAR     55  33  43 E6        30.05S
HUNTINGTON*    CLEAR     55  33  43 E5        30.04S
PERU/GRISSOM   CLEAR     57  34  41 E7        30.02R
MARION*        CLEAR     55  32  41 NE6       30.04R

$$
INZ028>050-240300-
CENTRAL INDIANA

CITY           SKY/WX    TMP DP  RH WIND       PRES   REMARKS
LAFAYETTE      CLEAR     54  38  54 NE6       30.02R
KOKOMO*        CLEAR     53  35  50 NE7       30.04S
MUNCIE*        CLEAR     57  31  37 NE8       30.03R
INDIANAPOLIS   PTCLDY    60  28  29 NE12      30.00R

$$
MIZ043>046-050>051-056>058-064>065-071>073-077>080-240300-
SOUTHWEST LOWER MICHIGAN

CITY           SKY/WX    TMP DP  RH WIND       PRES   REMARKS
BATTLE CREEK   CLEAR     58  29  33 N5        30.07R
BENTON HARBOR  CLEAR     47  32  56 CALM      30.06S
COLDWATER*     CLEAR     54  30  39 CALM      30.04S
HILLSDALE*     CLEAR     50  36  57 CALM      30.06R
HOLLAND        CLEAR     49  36  61 CALM      30.08R
GRAND RAPIDS   PTCLDY    56  35  45 W6        30.07R
KALAMAZOO      CLEAR     56  30  37 N7        30.06R
STURGIS*       CLEAR     52  32  46 E3        30.04R
THREE RIVERS*  FAIR      58  32  37 N6        30.05S

$$
OHZ001>008-015>018-024>025-240300-
NORTHWEST OHIO

CITY           SKY/WX    TMP DP  RH WIND       PRES   REMARKS
WAUSEON*       FAIR      55  37  50 SE8       30.06R
DEFIANCE       CLEAR     53  28  38 SE3       30.06R
FINDLAY        PTCLDY    52  31  44 NE9       30.05R
TOLEDO EXPRESS CLEAR     54  28  36 SE3       30.07R
TOLEDO METCALF CLEAR     54  32  43 CALM      30.07R
LIMA           CLEAR     53  34  48 NE6       30.05R

$$
AND FOR LAKE MICHIGAN COASTAL AND OPEN LAKE BUOY OBSERVATIONS

STATION/POSITION TEMP    WIND        PRES    VSBY  WAVE
                 AIR SEA DIR/SP/G                  HT/PER
                 (F)     (DEG/KT/KT) (MB)    (MI)  (FT/S)
CALUMET HARBOR    55      60/  1/  2 1017.3R
MICHIGAN CITY     52      50/  4/  5   N/A
BURNS HARBOR      54      80/  7/  8 1017.9S
SOUTH LAKE BUOY   40 41   20/  6/  8 1019.1R         1/ 4
4 MI NW BRIDGMAN  52 54   40/  4/  6 1018.5          0

$$
&&




USA.gov is the U.S. government's official web portal to all federal, state and local government web resources and services.